[[{"header":{"parameterUnit":"m.s-1","parameterCategory":1,"la1":30.2991,"la2":30.254,"lo1":-89.0895,"lo2":-89.0444,"dy":0.0017,"dx":0.0017,"nx":28,"ny":28,"refTime":"2023-11-01T03:00:00:Z","depth":0,"parameterNumber":2,"parameterNumberName":"U-component_of_WINDS"},"data":[0,0,0,0,0,0,0,0,0,0,0,0,0,0,0,0,0,0,0,0,0,0,0,0,0,0,0,0,0,0,0,0,0,0,0,0,0,0,0,0,0,0,0,0,0,0,0,0,0,0,0,0,0,0,0,0,0,0,-4.6387,-4.6387,0,-4.6449,-4.645,-4.6451,-4.6242,-4.6236,-4.6229,-4.6224,-4.629,-4.6298,-4.6305,0,0,0,0,0,0,0,0,0,0,0,0,0,-4.6086,-4.6093,-4.6387,-4.6387,-4.6388,-4.6449,-4.645,-4.6451,-4.6243,-4.6236,-4.6228,-4.6221,-4.6288,-4.6297,-4.6306,0,0,0,0,0,0,0,0,0,0,0,0,0,-4.619,-4.6095,-4.6386,-4.6292,-4.6284,-4.6449,-4.645,-4.6451,-4.6245,-4.6235,-4.6226,-4.6217,-4.6285,-4.6296,-4.6307,-4.6568,0,0,-4.6342,-4.6347,0,0,0,0,0,0,0,0,-4.6185,-4.6201,-4.6305,-4.6299,-4.629,-4.6328,-4.6368,-4.649,-4.6247,-4.626,-4.6223,-4.6212,-4.6311,-4.6319,-4.6352,-4.6571,-4.6573,-4.6343,-4.635,-4.6355,-4.6358,0,0,0,0,0,0,0,-4.6178,-4.6197,-4.6411,-4.6307,-4.6298,-4.6246,-4.625,-4.6391,-4.6338,-4.6258,-4.6243,-4.6253,-4.6305,-4.6342,-4.6352,-4.6574,-4.6343,-4.6353,-4.636,-4.6365,-4.7008,-4.7018,0,0,0,0,0,0,-4.6183,-4.6193,-4.6409,-4.6413,-4.6213,-4.6259,-4.6264,-4.6326,-4.6335,-4.6328,-4.6261,-4.6243,-4.6327,-4.6339,-4.6354,-4.6659,-4.6355,-4.6366,-4.6372,-4.6998,-4.701,-4.7021,0,0,0,0,0,0,-4.6177,-4.6204,-4.6407,-4.6299,-4.6321,-4.6274,-4.6345,-4.6332,-4.6368,-4.6338,-4.6327,-4.6309,-4.632,-4.6337,-4.6515,-4.6658,-4.6371,-4.6381,-4.6986,-4.7002,-4.7016,-4.7272,0,0,0,0,0,0,-4.6169,-4.6203,-4.6302,-4.6303,-4.6328,-4.6569,-4.6354,-4.634,-4.6388,-4.6365,-4.638,-4.6373,-4.6313,-4.6499,-4.6527,-4.6669,-4.639,-4.6973,-4.6993,-4.7011,-4.725,-4.7294,-4.7331,0,0,0,0,0,-4.6159,-4.6372,-4.6308,-4.6335,-4.645,-4.6577,-4.6591,-4.6518,-4.6401,-4.65,-4.6479,-4.6372,-4.6638,-4.6519,-4.6548,-4.6696,-4.6964,-4.6987,-4.7009,-4.7232,-4.7285,-4.733,0,0,0,0,0,0,-4.6391,-4.6371,-4.6299,-4.6519,-4.6551,-4.6542,-4.6664,-4.6577,-4.6644,-4.662,-4.6526,-4.6531,-4.6726,-4.6728,-4.6597,-4.6947,-4.678,-4.681,-4.694,-4.699,-4.703,-4.7026,-4.64,0,0,0,0,0,-4.6467,-4.6572,-4.6548,-4.6745,-4.6764,-4.6712,-4.6765,-4.6705,-4.6735,-4.6748,-4.6741,-4.6775,-4.6865,-4.6927,-4.7009,-4.7248,-4.7248,-4.7364,-4.7404,-4.7438,-4.7465,-4.7592,-4.7643,-4.7097,-4.7096,-4.7096,0,0,-4.6627,-4.6628,-4.6701,-4.6791,-4.6809,-4.692,-4.6725,-4.6851,-4.6932,-4.6767,-4.6935,-4.6931,-4.6962,-4.7172,-4.7264,-4.718,-4.7616,-4.7467,-4.7494,-4.7503,-4.7621,-4.7672,-4.7718,-4.7112,-4.7109,-4.7107,0,0,-4.6974,-4.6986,-4.715,-4.7171,-4.7201,-4.7164,-4.7204,-4.7207,-4.7198,-4.7364,-4.7242,-4.7337,-4.7496,-4.7522,-4.7557,-4.7912,-4.7816,-4.7941,-4.8153,-4.8277,-4.832,-4.8358,-4.8485,-4.8532,-4.7968,-4.7969,-4.7969,0,-4.7169,-4.733,-4.7246,-4.7379,-4.7423,-4.7277,-4.7442,-4.7467,-4.7523,-4.7556,-4.746,-4.7654,-4.7665,-4.7879,-4.7965,-4.7998,-4.804,-4.794,-4.8321,-4.8358,-4.8392,-4.8512,-4.856,-4.7984,-4.7982,-4.7981,-4.7979,0,-4.7568,-4.7682,-4.7811,-4.7867,-4.7924,-4.8074,-4.8012,-4.808,-4.8015,-4.7988,-4.8159,-4.8166,-4.8246,-4.8292,-4.823,-4.8497,-4.8444,-4.8336,-4.8166,-4.846,-4.8571,-4.8617,-4.8005,-4.8,-4.7996,-4.7992,0,0,-4.8066,-4.8071,-4.812,-4.8143,-4.8164,-4.825,-4.8392,-4.8469,-4.853,-4.8572,-4.8689,-4.8824,-4.8724,-4.8763,-4.8703,-4.8812,-4.9093,-4.869,-4.8689,-4.8765,-4.9387,-4.947,-4.9524,-4.9028,-4.9036,-4.9043,-4.9385,0,-4.8408,-4.8651,-4.8578,-4.8822,-4.8926,-4.8788,-4.8911,-4.8937,-4.8916,-4.9,-4.8976,-4.9074,-4.8934,-4.8956,-4.9058,-4.9037,-4.9217,-4.9011,-4.9136,-4.9142,-4.9135,-4.9582,-4.967,-4.9993,-4.9428,-4.9435,-4.944,0,-4.8841,-4.8899,-4.9154,-4.9155,-4.9196,-4.9308,-4.9372,-4.9455,-4.9481,-4.9457,-4.9501,-4.9417,-4.9555,-4.9384,-4.9574,-4.9436,-4.9482,-4.948,-4.949,-4.9501,-4.9311,-4.9606,-5.0094,-5.0143,-4.9508,-4.9503,-4.9498,0,-4.9179,-4.9321,-4.9491,-4.9515,-4.9521,-4.9603,-4.9609,-4.9625,-4.9676,-4.9732,-4.9764,-4.9836,-4.9876,-4.9933,-4.9871,-4.9752,-5.0071,-4.9894,-5.0056,-5.0058,-5.0131,-5.0128,-5.0635,-5.0159,-5.0158,-5.0157,-5.0156,0,-4.957,-4.9732,-4.9643,-4.9749,-4.9925,-4.9838,-5.0015,-5.0006,-5.0021,-5.0122,-5.0006,-5.0103,-5.0014,-5.0103,-5.0055,-5.022,-5.0238,-5.0223,-5.0209,-5.0235,-5.0237,-5.0265,-5.0242,-5.017,-5.0167,-5.0165,-5.0163,0,-4.9979,-4.9926,-5.0103,-5.0093,-5.0094,-5.0225,-5.0216,-5.0313,-5.0282,-5.0411,-5.0436,-5.0388,-5.0486,-5.0429,-5.053,-5.0497,-5.0711,-5.0666,-5.0703,-5.0692,-5.0857,-5.0843,-5.1401,-5.147,-5.095,-5.0955,-5.0959,0,-5.0233,-5.0353,-5.0356,-5.0415,-5.0428,-5.0525,-5.0575,-5.0494,-5.0551,-5.0589,-5.0681,-5.0769,-5.0836,-5.0999,-5.0973,-5.105,-5.1005,-5.1196,-5.1016,-5.1038,-5.1009,-5.1003,-5.1015,-5.1233,-5.1239,-5.1244,-5.1248,0,-5.0689,-5.0656,-5.0733,-5.0802,-5.0865,-5.0915,-5.0956,-5.101,-5.0929,-5.0999,-5.1098,-5.1149,-5.1251,-5.134,-5.1404,-5.141,-5.1317,-5.1304,-5.1345,-5.1374,-5.1391,-5.1385,-5.0803,-5.1292,-5.1288,-5.1284,-5.1282,-5.128,-5.1028,-5.1128,-5.1146,-5.1235,-5.1257,-5.1297,-5.1387,-5.1366,-5.1447,-5.1523,-5.1469,-5.1587,-5.1607,-5.1684,-5.1701,-5.1791,-5.1715,-5.1775,-5.179,-5.1807,-5.183,-5.1376,-5.1803,-5.1801,-5.18,-5.1799,-5.1798,0,-5.1478,-5.1482,-5.1565,-5.1624,-5.1695,-5.1598,-5.1638,-5.1703,-5.1807,-5.1834,-5.1901,-5.2014,-5.2099,-5.2079,-5.2156,-5.2232,-5.2191,-5.2255,-5.2249,-5.2252,-5.1894,-5.1851,-5.2287,-5.2287,-5.2287,-5.2286,-5.2286,-5.2286,-5.1721,-5.1886,-5.1855,-5.2029,-5.2031,-5.2144,-5.2175,-5.2211,-5.2232,-5.2363,-5.2433,-5.2419,-5.2427,-5.2502,-5.2576,-5.2568,-5.2602,-5.2682,-5.2659,-5.2325,-5.2277,-5.2231,-5.219,-5.269,-5.2691,-5.3009,-5.3012,-5.3014]},{"header":{"parameterUnit":"m.s-1","parameterCategory":1,"la1":30.2991,"la2":30.254,"lo1":-89.0895,"lo2":-89.0444,"dy":0.0017,"dx":0.0017,"nx":28,"ny":28,"refTime":"2023-11-01T03:00:00:Z","depth":0,"parameterNumber":3,"parameterNumberName":"V-component_of_WINDS"},"data":[0,0,0,0,0,0,0,0,0,0,0,0,0,0,0,0,0,0,0,0,0,0,0,0,0,0,0,0,0,0,0,0,0,0,0,0,0,0,0,0,0,0,0,0,0,0,0,0,0,0,0,0,0,0,0,0,0,0,-5.424,-5.4241,0,-5.4307,-5.4307,-5.4308,-5.4238,-5.4235,-5.4232,-5.423,-5.4294,-5.4298,-5.4302,0,0,0,0,0,0,0,0,0,0,0,0,0,-5.4045,-5.4049,-5.424,-5.4241,-5.4242,-5.4306,-5.4307,-5.4308,-5.4238,-5.4235,-5.4231,-5.4228,-5.4292,-5.4297,-5.4302,0,0,0,0,0,0,0,0,0,0,0,0,0,-5.4123,-5.4051,-5.424,-5.4214,-5.4213,-5.4306,-5.4307,-5.4308,-5.4239,-5.4235,-5.4231,-5.4227,-5.4291,-5.4297,-5.4303,-5.4423,0,0,-5.4322,-5.4325,0,0,0,0,0,0,0,0,-5.4118,-5.413,-5.4217,-5.4216,-5.4215,-5.426,-5.4262,-5.4347,-5.424,-5.4229,-5.4229,-5.4225,-5.4285,-5.4292,-5.4313,-5.4426,-5.4429,-5.4323,-5.4327,-5.433,-5.4331,0,0,0,0,0,0,0,-5.4113,-5.4127,-5.4266,-5.4219,-5.4217,-5.4198,-5.4204,-5.4278,-5.4279,-5.4229,-5.4224,-5.4234,-5.4284,-5.4307,-5.4314,-5.443,-5.4323,-5.4328,-5.4332,-5.4335,-5.4641,-5.4645,0,0,0,0,0,0,-5.4111,-5.4123,-5.4264,-5.4268,-5.4156,-5.4204,-5.4212,-5.4249,-5.4278,-5.4278,-5.4237,-5.423,-5.4298,-5.4307,-5.4316,-5.4456,-5.433,-5.4335,-5.4339,-5.4637,-5.4642,-5.4646,0,0,0,0,0,0,-5.4107,-5.4125,-5.4261,-5.4194,-5.421,-5.4212,-5.4255,-5.4253,-5.4276,-5.4284,-5.4283,-5.4261,-5.4296,-5.4307,-5.4397,-5.4457,-5.4338,-5.4344,-5.4631,-5.4638,-5.4644,-5.4738,0,0,0,0,0,0,-5.4102,-5.4124,-5.4171,-5.4196,-5.4214,-5.4343,-5.4259,-5.4257,-5.4288,-5.4279,-5.4306,-5.4307,-5.4293,-5.4387,-5.4403,-5.4464,-5.4349,-5.4626,-5.4634,-5.4642,-5.473,-5.4747,-5.4762,0,0,0,0,0,-5.4095,-5.4195,-5.4174,-5.4191,-5.4274,-5.4347,-5.4357,-5.434,-5.4293,-5.4339,-5.4343,-5.4306,-5.4449,-5.4397,-5.4414,-5.4478,-5.4622,-5.4632,-5.4641,-5.4722,-5.4744,-5.4762,0,0,0,0,0,0,-5.4177,-5.4198,-5.4175,-5.4286,-5.4315,-5.4335,-5.4393,-5.4364,-5.4407,-5.4397,-5.4373,-5.438,-5.4474,-5.4485,-5.4428,-5.4593,-5.4527,-5.4541,-5.4583,-5.4603,-5.4619,-5.4613,-5.4354,0,0,0,0,0,-5.4208,-5.4267,-5.4282,-5.4378,-5.4394,-5.4391,-5.4422,-5.4407,-5.4436,-5.4447,-5.4458,-5.4487,-5.4537,-5.4571,-5.4618,-5.4731,-5.4734,-5.4783,-5.4799,-5.4812,-5.4824,-5.488,-5.4901,-5.4678,-5.4678,-5.4678,0,0,-5.4272,-5.4291,-5.433,-5.4395,-5.4416,-5.4475,-5.4402,-5.4469,-5.4511,-5.4457,-5.4542,-5.4551,-5.458,-5.4681,-5.4726,-5.4693,-5.4886,-5.4825,-5.4835,-5.4839,-5.4892,-5.4913,-5.4932,-5.4685,-5.4684,-5.4683,0,0,-5.4419,-5.4441,-5.4522,-5.4544,-5.4577,-5.4574,-5.4593,-5.4617,-5.4621,-5.4705,-5.4665,-5.4714,-5.4804,-5.4825,-5.4848,-5.5,-5.4965,-5.5016,-5.51,-5.5155,-5.5173,-5.5188,-5.5239,-5.5258,-5.5028,-5.5028,-5.5028,0,-5.4495,-5.4585,-5.4567,-5.4636,-5.4664,-5.4618,-5.4698,-5.472,-5.4766,-5.4785,-5.4748,-5.4856,-5.4873,-5.4976,-5.5013,-5.5034,-5.5053,-5.5012,-5.5172,-5.5187,-5.5201,-5.525,-5.5269,-5.5034,-5.5033,-5.5032,-5.5032,0,-5.4674,-5.4736,-5.4797,-5.4843,-5.4878,-5.4952,-5.4943,-5.4981,-5.4962,-5.4962,-5.5047,-5.5065,-5.5114,-5.5137,-5.512,-5.5238,-5.5215,-5.5176,-5.5108,-5.5229,-5.5273,-5.5292,-5.5042,-5.504,-5.5038,-5.5037,0,0,-5.4875,-5.4908,-5.4931,-5.4949,-5.498,-5.5027,-5.5098,-5.5146,-5.5177,-5.521,-5.5266,-5.5341,-5.5304,-5.5329,-5.5314,-5.5363,-5.5478,-5.5316,-5.5316,-5.5343,-5.5604,-5.5632,-5.5654,-5.5456,-5.5459,-5.5462,-5.5601,0,-5.502,-5.5144,-5.5128,-5.5245,-5.5301,-5.5257,-5.5317,-5.5342,-5.5343,-5.5389,-5.539,-5.5442,-5.5391,-5.5405,-5.5452,-5.5454,-5.5529,-5.5444,-5.5505,-5.5508,-5.5497,-5.5678,-5.5709,-5.5838,-5.5618,-5.5621,-5.5624,0,-5.5206,-5.5245,-5.5368,-5.5388,-5.541,-5.5466,-5.5507,-5.5552,-5.5577,-5.5574,-5.5602,-5.5577,-5.5645,-5.5577,-5.5668,-5.5611,-5.5634,-5.5639,-5.5644,-5.5647,-5.5571,-5.5683,-5.588,-5.5898,-5.5652,-5.565,-5.5648,0,-5.5336,-5.542,-5.5503,-5.5521,-5.5547,-5.5586,-5.5598,-5.562,-5.5649,-5.5684,-5.5702,-5.5745,-5.5768,-5.5801,-5.5786,-5.5739,-5.5879,-5.5811,-5.5876,-5.5876,-5.5906,-5.5904,-5.6106,-5.5926,-5.5926,-5.5925,-5.5925,0,-5.5499,-5.5575,-5.5561,-5.5612,-5.5695,-5.5675,-5.5757,-5.5764,-5.5783,-5.5832,-5.5798,-5.5844,-5.5824,-5.5869,-5.5859,-5.5933,-5.5945,-5.5942,-5.5938,-5.5944,-5.5944,-5.5958,-5.5947,-5.5931,-5.5929,-5.5928,-5.5928,0,-5.5657,-5.5652,-5.5739,-5.5756,-5.5762,-5.5822,-5.5835,-5.5881,-5.588,-5.5942,-5.5956,-5.5953,-5.6003,-5.5993,-5.6049,-5.6042,-5.6135,-5.6121,-5.6126,-5.6122,-5.6186,-5.6179,-5.6402,-5.6429,-5.6234,-5.6236,-5.6238,0,-5.576,-5.5818,-5.584,-5.5871,-5.5886,-5.5937,-5.5966,-5.5948,-5.5979,-5.6011,-5.6053,-5.61,-5.6137,-5.622,-5.6221,-5.6263,-5.6248,-5.6323,-5.6254,-5.6257,-5.6245,-5.6241,-5.6245,-5.6336,-5.6338,-5.634,-5.6342,0,-5.5942,-5.5936,-5.598,-5.6022,-5.6057,-5.609,-5.6118,-5.6145,-5.6129,-5.6166,-5.6217,-5.6246,-5.6302,-5.6349,-5.6387,-5.6397,-5.6366,-5.6364,-5.638,-5.6386,-5.6385,-5.6383,-5.6161,-5.6358,-5.6356,-5.6355,-5.6354,-5.6354,-5.6074,-5.6121,-5.6144,-5.6192,-5.6212,-5.6239,-5.6282,-5.6286,-5.6329,-5.6373,-5.636,-5.6418,-5.6438,-5.6486,-5.6501,-5.6545,-5.6516,-5.6541,-5.6547,-5.6553,-5.6559,-5.6381,-5.6552,-5.6551,-5.6551,-5.655,-5.655,0,-5.6251,-5.6263,-5.6308,-5.6349,-5.6386,-5.6355,-5.6384,-5.6417,-5.6469,-5.6491,-5.6528,-5.6585,-5.663,-5.6634,-5.6676,-5.6709,-5.6696,-5.672,-5.6716,-5.6718,-5.6584,-5.6564,-5.673,-5.673,-5.673,-5.673,-5.673,-5.673,-5.6347,-5.6425,-5.6421,-5.6506,-5.6517,-5.6574,-5.6593,-5.6616,-5.6634,-5.6699,-5.6736,-5.6739,-5.6754,-5.6795,-5.6833,-5.6833,-5.6849,-5.6878,-5.6873,-5.6746,-5.6728,-5.6711,-5.6692,-5.6883,-5.6883,-5.7003,-5.7004,-5.7005]}]]